Date,TemperatureHighF,TemperatureAvgF,TemperatureLowF,DewpointHighF,DewpointAvgF,DewpointLowF,HumidityHigh,HumidityAvg,HumidityLow,PressureMaxIn,PressureMinIn,WindSpeedMaxMPH,WindSpeedAvgMPH,GustSpeedMaxMPH,PrecipitationSumIn
2013-1-1,32.7,26.6,11.1,26.8,17.8,2.4,84,70,54,30.01,29.88,8,1,11,0.00
2013-1-2,36.7,13.7,2.8,13.5,2.2,-5.8,72,60,34,30.11,29.98,5,0,7,0.01
2013-1-3,39.9,18.2,0.3,15.3,4.6,-10.5,71,56,27,30.14,30.03,9,1,14,0.00
2013-1-4,39.6,27.6,19.4,19.1,13.8,9.3,65,56,40,30.18,30.10,9,1,16,0.01
2013-1-5,44.8,26.6,10.8,23.9,15.3,3.2,76,63,40,30.24,30.02,4,0,7,0.11
2013-1-6,39.6,32.6,25.9,28.1,23.3,16.8,77,68,60,30.17,29.88,10,2,18,0.01
2013-1-7,42.3,27.6,14.5,23.9,17.2,7.2,75,65,43,30.34,30.13,5,1,8,0.00
2013-1-8,57.0,27.0,12.6,34.0,16.9,5.3,81,67,30,30.22,30.11,4,0,6,0.00
2013-1-9,55.2,35.6,22.6,38.0,27.6,17.7,85,73,46,30.39,30.08,7,0,11,0.08
2013-1-10,38.3,31.7,22.3,27.8,23.5,17.4,84,72,61,30.44,30.06,5,1,8,0.00
2013-1-11,61.2,44.5,36.1,52.7,38.1,26.0,90,79,61,30.07,29.80,7,0,9,0.33
2013-1-12,68.4,53.1,35.2,57.3,48.3,31.5,91,84,61,29.95,29.77,7,0,11,0.02
2013-1-13,63.3,56.8,38.7,55.9,51.0,34.8,89,81,68,29.94,29.69,14,2,22,0.30
2013-1-14,38.5,29.9,24.1,34.7,21.3,16.4,86,70,63,30.29,29.94,10,3,14,0.00
2013-1-15,24.1,23.0,21.6,16.7,15.7,14.8,75,73,71,30.24,30.18,5,2,8,0.00
2013-1-16,33.3,30.8,29.3,22.4,19.6,18.3,66,63,56,30.22,29.84,4,1,6,0.00
2013-1-17,36.3,32.2,29.7,25.0,23.3,21.2,79,70,58,30.07,29.82,2,1,4,0.00
2013-1-18,36.5,27.5,13.5,23.5,13.5,4.1,73,57,40,30.35,30.01,10,2,13,0.00
2013-1-19,52.9,39.4,28.2,24.6,19.4,14.5,61,46,25,30.20,29.76,5,3,8,0.00
2013-1-20,42.1,29.7,21.6,29.0,10.4,4.5,61,44,30,30.06,29.74,15,4,25,0.00
2013-1-21,25.7,18.7,8.2,12.2,3.7,-11.7,67,52,36,30.03,29.87,13,3,23,0.00
2013-1-22,18.5,9.1,3.6,-5.1,-11.8,-15.6,44,37,27,30.18,30.03,10,3,15,0.00
2013-1-23,21.4,13.2,3.6,6.4,-4.3,-12.3,64,46,28,30.17,29.93,7,1,12,0.00
2013-1-24,25.3,15.2,8.2,6.7,1.6,-2.9,66,55,39,30.40,29.93,11,3,16,0.00
2013-1-25,25.2,17.8,14.4,13.0,4.2,-3.3,74,55,42,30.34,29.88,5,1,10,0.00
2013-1-26,33.8,23.5,9.7,16.9,12.0,-2.3,76,62,44,30.31,29.96,9,2,14,0.00
2013-1-27,40.5,22.1,2.3,23.1,8.0,-7.0,73,55,38,30.36,30.11,6,1,9,0.13
2013-1-28,47.3,39.9,30.7,44.5,36.0,23.5,90,86,74,30.11,29.90,4,0,8,0.26
2013-1-29,70.0,54.4,45.0,53.6,47.2,42.2,91,78,52,29.95,29.59,9,1,19,0.01
2013-1-30,61.2,53.1,33.1,53.0,45.4,24.7,83,75,66,29.59,28.73,11,2,23,0.45
2013-1-31,33.4,25.2,17.4,24.7,14.2,4.4,74,63,42,29.78,29.32,13,4,24,0.00